Regional Weather Roundup
Issued by NWS Upton, NY

Current Version | Previous Version | Graphics & Text | Print | Product List | Glossary Off
Versions: 1 2 3 4 5 6 7 8 9 10 11 12 13 14 15 16 17 18 19 20 21 22 23 24 25 26 27 28 29 30 31 32 33 34 35 36 37 38 39 40 41 42 43 44 45 46 47 48 49 50

000
ASUS41 KOKX 150005
RWROKX

REGIONAL WEATHER ROUNDUP
NATIONAL WEATHER SERVICE NEW YORK NY
800 PM EDT SUN SEP 14 2014

NOTE: "FAIR" INDICATES FEW OR NO CLOUDS BELOW 12,000 FEET WITH NO
SIGNIFICANT WEATHER AND/OR OBSTRUCTIONS TO VISIBILITY.

NYZ071-072-176-178-NJZ106-104-150100-
NEW YORK CITY METRO AREA


CITY           SKY/WX    TMP DP  RH WIND       PRES   REMARKS
CENTRAL PARK   CLOUDY    63  44  50 E6        30.21S
LAGUARDIA APRT CLOUDY    67  43  41 E8        30.18S
KENNEDY INTL   MOCLDY    66  48  52 SE5       30.20R
NEWARK/LIBERTY CLOUDY    66  50  56 S6        30.18F
BRNX BOT. GARD   N/A     63  43  48 E1        30.19F
TETERBORO      CLOUDY    65  43  44 CALM      30.17S
$$

NYZ177-179-078>081-150100-
LONG ISLAND NEW YORK

CITY           SKY/WX    TMP DP  RH WIND       PRES   REMARKS
FARMINGDALE    CLOUDY    63  47  55 E3        30.19S
ISLIP          MOCLDY    61  47  59 CALM      30.18R
SHIRLEY        MOCLDY    56  49  77 CALM      30.20R
WESTHAMPTON      N/A     55  46  71 MISG      30.21R
MONTAUK POINT    N/A     61  51  70 CALM      30.21R
$$

NYZ052-065-067-150100-
HUDSON VALLEY

CITY           SKY/WX    TMP DP  RH WIND       PRES   REMARKS
WHITE PLAINS   CLOUDY    55  46  71 CALM      30.19S
NEWBURGH       PTCLDY    59  48  67 VRB5      30.20S
MONTGOMERY     MOCLDY    56  49  77 N6        30.20R
POUGHKEEPSIE   MOCLDY    57  47  69 NE3       30.19S
ALBANY         PTCLDY    54  44  69 N3        30.22S
$$

NJZ001-105-106-008-010-013-015-019>022-104-150100-
NEW JERSEY

CITY           SKY/WX    TMP DP  RH WIND       PRES   REMARKS
NEWARK/LIBERTY CLOUDY    66  50  56 S6        30.18F
TETERBORO      CLOUDY    65  43  44 CALM      30.17S
CALDWELL       CLOUDY    61  47  59 NE3       30.19S
MORRISTOWN     MOCLDY    57  52  82 CALM      30.19S
SOMERVILLE     MOCLDY    56  51  84 CALM      30.18S
LINDEN         FAIR      69  52  55 CALM      30.20S
SUSSEX         MOCLDY    55  49  80 CALM      30.19S
ANDOVER          N/A     53  50  89 CALM      30.20S
TRENTON        MOCLDY    62  47  57 NW3       30.19S
MILLVILLE      MOCLDY    57  53  86 CALM      30.21R
ATLANTIC CITY  MOCLDY    61  55  81 CALM      30.21R
WRIGHTSTOWN    MOCLDY    58  54  85 S6        30.18R
TOMS RIVER     MOCLDY    57  54  88 CALM      30.21R
BELMAR         PTCLDY    61  52  72 SW3       30.20R
$$

PAZ047>061-062-071-150100-
EASTERN PENNSYLVANIA

CITY           SKY/WX    TMP DP  RH WIND       PRES   REMARKS
PHILADELPHIA   MOCLDY    65  49  56 SW9       30.21R
ALLENTOWN      MOCLDY    56  47  71 SW5       30.20R
SCRANTON       CLEAR     52  46  80 E3        30.21R
$$

CTZ002-004>006-009-010-012-RIZ004-006-007-MAZ004-011-015-150100-
SOUTHERN NEW ENGLAND
 IN CT

CITY           SKY/WX    TMP DP  RH WIND       PRES   REMARKS
BRADLEY INTL   MOCLDY    57  48  72 NW6       30.19R
HARTFORD       MOCLDY    62  45  53 VRB5      30.19R
DANBURY        MOCLDY    54  48  80 S3        30.21S
WTRBRY/OXFORD  MOCLDY    54  43  66 NE3       30.22S
BRIDGEPORT     CLOUDY    62  46  55 N5        30.20R
MERIDEN        MOCLDY    58  48  69 W3        30.20R
NEW HAVEN      MOCLDY    63  46  54 NW5       30.20R
CHESTER        FAIR      57  54  88 CALM      30.20S
GROTON         MOCLDY    59  51  75 NW3       30.19R
WILLIMANTIC    CLOUDY    57  51  80 CALM      30.20S

 IN RI

CITY           SKY/WX    TMP DP  RH WIND       PRES   REMARKS
PROVIDENCE     MOCLDY    62  45  53 N3        30.19S
BLOCK ISLAND   MOCLDY    61  48  63 SW6       30.19S
WESTERLY       MOCLDY    60  48  64 CALM      30.20R

 IN MA

CITY           SKY/WX    TMP DP  RH WIND       PRES   REMARKS
BOSTON         CLOUDY    58  49  72 SE8       30.20R
WORCESTER      MOCLDY    52  47  83 CALM      30.21R
WESTFIELD      MOCLDY    56  47  71 NE5       30.20R
PROVINCETOWN   MOCLDY    50  45  81 CALM      30.21S
NANTUCKET      MOCLDY    54  48  80 NE5       30.20R
$$

ANZ330-335-338-340-345-350-353-355-150100-
COASTAL MARINE OBSERVATIONS


STATION/POSITION TIME  SKY/WX   TEMP    WIND        PRES    VSBY  WAVE
                                AIR SEA DIR/SP/G                  HT/PER
                 (UTC)          (F)     (DEG/KT/KT) (MB)    (MI)  (FT/S)
NY HARB ENTRANCE NOT AVBL
4S FIRE IS       NOT AVBL
23SW MTP         0000                                 N/A           2/ 5
HUDSON CANYON    0000            62 73  310/  6/  8 1022.7          3/ 6
EXECUTION ROCKS  0000            66 72   50/ 10/ 12   N/A
WESTERN LI SOUND 2300            66      10/ 10/ 12   N/A           1
CENTRAL LI SOUND 2300            66 71  290/ 12/ 16   N/A           1/ 2
EASTERN LI SOUND 2300            65 68  270/  8/ 10   N/A
ROBBINS REEF     0000            66     220/  8/ 11 1020.9
$$


>>>>>>>>>>>>>>>>>>>>>>>>>>>> KEY <<<<<<<<<<<<<<<<<<<<<<<<<<<
>                                                          <
>     SKY/WX - SKY CONDITION/PRESENT WEATHER               <
>     TMP    - TEMPERATURE IN FAHRENHEIT                   <
>     DP     - DEWPOINT IN FAHRENHEIT                      <
>     RH     - RELATIVE HUMIDITY IN PERCENT                <
>     WIND   - DIRECTION AND SPEED IN MPH                  <
>     PRES   - MEAN SEA LEVEL PRESSURE IN INCHES OF HG     <
>     WCI    - WIND CHILL INDEX                            <
>     VSB    - VISIBILITY IN MILES                         <
>     HX     - HEAT INDEX                                  <
>     TC     - TEMPERATURE IN CELSIUS                      <
>     VRB    - VARIABLE WIND DIRECTION                     <
>                                                          <
>>>>>>>>>>>>>>>>>>>>>>>>>>>> KEY <<<<<<<<<<<<<<<<<<<<<<<<<<<




USA.gov is the U.S. government's official web portal to all federal, state and local government web resources and services.